Location: Kumla
(59.1265°N, 15.1401°E)
Time: 07:21:39
(UTC+01:00)

Transit 2A - Pass Details

Date: 06 December 2023
Orbit: 600 x 953 km, 66.7° (Epoch: 21 February)

Event Time Altitude Azimuth Distance (km) Brightness Sun altitude
Rises 22:19:29 0° 309° (NW) 2,904 - -50.0°
Reaches altitude 10° 22:21:46 10° 311° (NW) 1,973 - -50.2°
Maximum altitude 22:26:10 84° 39° (NE) 613 - -50.5°
Drops below altitude 10° 22:30:32 10° 129° (SE) 1,957 - -50.7°
Sets 22:32:48 0° 130° (SE) 2,878 - -50.9°
